TimePST,TemperatureF,Dew PointF,Humidity,Sea Level PressureIn,VisibilityMPH,Wind Direction,Wind SpeedMPH,Gust SpeedMPH,PrecipitationIn,Events,Conditions,WindDirDegrees,DateUTC
12:52 AM,33.1,26.1,75,30.19,-9999.0,Calm,Calm,-,N/A,,Unknown,0,2013-11-11 08:52:00
1:52 AM,33.1,26.1,75,30.19,-9999.0,Calm,Calm,-,N/A,,Unknown,0,2013-11-11 09:52:00
2:52 AM,30.0,25.0,82,30.21,-9999.0,Calm,Calm,-,N/A,,Unknown,0,2013-11-11 10:52:00
3:52 AM,33.1,26.1,75,30.21,-9999.0,Calm,Calm,-,N/A,,Unknown,0,2013-11-11 11:52:00
4:52 AM,28.9,25.0,85,30.26,-9999.0,South,3.5,-,N/A,,Unknown,190,2013-11-11 12:52:00
5:52 AM,28.9,25.0,85,30.27,-9999.0,SE,3.5,-,N/A,,Unknown,140,2013-11-11 13:52:00
6:52 AM,28.0,25.0,88,30.30,-9999.0,Calm,Calm,-,N/A,,Unknown,0,2013-11-11 14:52:00
7:52 AM,34.0,28.9,82,30.30,-9999.0,Calm,Calm,-,N/A,,Unknown,0,2013-11-11 15:52:00
8:52 AM,39.9,30.9,70,30.30,-9999.0,Calm,Calm,-,N/A,,Unknown,0,2013-11-11 16:52:00
9:52 AM,48.0,33.1,56,30.30,-9999.0,Calm,Calm,-,N/A,,Unknown,0,2013-11-11 17:52:00
10:52 AM,52.0,34.0,50,30.27,-9999.0,NNE,5.8,-,N/A,,Unknown,20,2013-11-11 18:52:00
11:52 AM,55.9,33.1,42,30.26,-9999.0,NNE,6.9,-,N/A,,Unknown,20,2013-11-11 19:52:00
12:52 PM,57.9,30.0,35,30.26,-9999.0,North,6.9,-,N/A,,Unknown,10,2013-11-11 20:52:00
1:52 PM,59.0,30.0,33,30.25,-9999.0,NNE,6.9,-,N/A,,Unknown,30,2013-11-11 21:52:00
2:52 PM,57.0,28.9,34,30.25,-9999.0,NE,6.9,-,N/A,,Unknown,50,2013-11-11 22:52:00
3:52 PM,57.9,30.0,35,30.24,-9999.0,NE,5.8,-,N/A,,Unknown,40,2013-11-11 23:52:00
4:52 PM,46.0,30.9,56,30.28,-9999.0,NE,6.9,-,N/A,,Unknown,50,2013-11-12 00:52:00
5:52 PM,45.0,30.9,58,30.30,-9999.0,ENE,5.8,-,N/A,,Unknown,60,2013-11-12 01:52:00
6:52 PM,45.0,32.0,60,30.30,-9999.0,ENE,6.9,-,N/A,,Unknown,60,2013-11-12 02:52:00
7:52 PM,39.0,32.0,76,30.30,-9999.0,Calm,Calm,-,N/A,,Unknown,0,2013-11-12 03:52:00
8:52 PM,35.1,30.0,82,30.31,-9999.0,SSE,5.8,-,N/A,,Unknown,150,2013-11-12 04:52:00
9:52 PM,35.1,30.0,82,30.30,-9999.0,SE,4.6,-,N/A,,Unknown,140,2013-11-12 05:52:00
10:52 PM,35.1,30.9,85,30.30,-9999.0,SSE,5.8,-,N/A,,Unknown,160,2013-11-12 06:52:00
11:52 PM,34.0,30.0,85,30.29,-9999.0,ENE,4.6,-,N/A,,Unknown,60,2013-11-12 07:52:00